This is the latest recevied weather packets stored in our database for station/object W0WFX-2. If no packets are shown the sender has not sent any weather packets the latest 10 day(s).
| Time | Temp. | Humidity | Pressure | Rain* | Wind** | Luminosity | Snow |
|---|---|---|---|---|---|---|---|
| 1787964304 | 27.78° C | 51% | 1017.6 hPa | 0 mm | - | 8 W/m² | - |
| 1787964003 | 27.78° C | 51% | 1017.8 hPa | 0 mm | - | 10 W/m² | - |
| 1787963698 | 27.78° C | 50% | 1017.5 hPa | 0 mm | - | 14 W/m² | - |
| 1787963398 | 27.78° C | 49% | 1017.5 hPa | 0 mm | - | 17 W/m² | - |
| 1787963094 | 28.33° C | 48% | 1017.5 hPa | 0 mm | - | 20 W/m² | - |
| 1787962793 | 28.33° C | 47% | 1017.8 hPa | 0 mm | - | 22 W/m² | - |
| 1787962492 | 28.33° C | 47% | 1017.6 hPa | 0 mm | - | 25 W/m² | - |
| 1787962190 | 28.89° C | 45% | 1017.7 hPa | 0 mm | - | 29 W/m² | - |
| 1787961885 | 28.89° C | 46% | 1017.7 hPa | 0 mm | - | 34 W/m² | - |
| 1787961584 | 28.89° C | 45% | 1017.8 hPa | 0 mm | - | 41 W/m² | - |
| 1787961278 | 28.89° C | 45% | 1017.6 hPa | 0 mm | - | 44 W/m² | - |
| 1787960973 | 28.89° C | 43% | 1017.8 hPa | 0 mm | - | 40 W/m² | - |
| 1787960668 | 29.44° C | 43% | 1018 hPa | 0 mm | - | 39 W/m² | - |
| 1787960367 | 29.44° C | 43% | 1017.8 hPa | 0 mm | - | 41 W/m² | - |
| 1787960061 | 29.44° C | 42% | 1017.8 hPa | 0 mm | - | 42 W/m² | - |
| 1787959756 | 29.44° C | 42% | 1017.9 hPa | 0 mm | - | 43 W/m² | - |
| 1787959452 | 29.44° C | 42% | 1018 hPa | 0 mm | - | 46 W/m² | - |
| 1787959147 | 30° C | 41% | 1017.9 hPa | 0 mm | - | 49 W/m² | - |
| 1787958851 | 30° C | 42% | 1017.8 hPa | 0 mm | - | 51 W/m² | - |
| 1787958537 | 30° C | 42% | 1017.9 hPa | 0 mm | - | 53 W/m² | - |
| 1787958233 | 30° C | 41% | 1018 hPa | 0 mm | - | 57 W/m² | - |
| 1787957932 | 30° C | 41% | 1018 hPa | 0 mm | - | 56 W/m² | - |
| 1787957631 | 30° C | 42% | 1018.1 hPa | 0 mm | - | 59 W/m² | - |
| 1787957327 | 30° C | 41% | 1017.9 hPa | 0 mm | - | 57 W/m² | - |
| 1787957026 | 30° C | 41% | 1018.1 hPa | 0 mm | - | 59 W/m² | - |
* Rain latest hour (hover to see other rain measurements)
** Current wind speed in m/s (hover to see current wind gust speed)